Location: Oshawa
(43.9000°N, 78.8670°W)
Time: 20:52:31
(UTC-05:00)

Cosmos 839 Rocket - Visible Passes

Search period start: 24 November 2017 00:00
Search period end: 04 December 2017 00:00
Orbit: 963 x 2090 km, 65.9° (Epoch: 24 November)

Date Brightness Start Highest point End Pass type
(mag) Time Alt. Az. Time Alt. Az. Time Alt. Az.
24 Nov 6.3 03:35:35 19° N 03:35:35 19° N 03:38:49 10° NNE visible
24 Nov 6.3 05:32:12 11° NNW 05:36:28 16° N 05:41:40 10° NE visible
25 Nov 6.6 02:54:54 16° NNE 02:54:54 16° NNE 02:56:47 10° NNE visible
25 Nov 6.3 04:51:31 15° NNW 04:53:24 16° N 04:58:27 10° NNE visible
25 Nov 6.4 06:51:00 10° NNW 06:57:39 23° NNE 07:05:27 10° ENE visible
26 Nov 6.9 02:14:13 12° NNE 02:14:13 12° NNE 02:14:49 10° NNE visible
26 Nov 6.3 04:10:49 17° N 04:10:49 17° N 04:15:43 10° NNE visible
26 Nov 6.4 06:08:55 10° NNW 06:14:46 20° NNE 06:21:31 10° ENE visible
27 Nov 6.4 03:30:07 17° N 03:30:07 17° N 03:33:20 10° NNE visible
27 Nov 6.4 05:26:44 10° NNW 05:31:46 17° NNE 05:37:38 10° NE visible
28 Nov 6.7 02:49:25 15° NNE 02:49:25 15° NNE 02:51:10 10° NNE visible
28 Nov 6.4 04:46:02 14° NNW 04:48:43 16° N 04:54:01 10° NE visible
28 Nov 6.4 06:45:12 10° NNW 06:52:41 29° NE 07:01:36 10° E visible
29 Nov 7.0 02:08:42 11° NNE 02:08:42 11° NNE 02:09:08 10° NNE visible
29 Nov 6.4 04:05:19 16° N 04:05:39 16° N 04:10:49 10° NNE visible
29 Nov 6.5 06:03:13 10° NNW 06:09:55 23° NNE 06:17:47 10° ENE visible
30 Nov 6.6 03:24:36 16° N 03:24:36 16° N 03:28:05 10° NNE visible
30 Nov 6.5 05:21:13 10° NNW 05:27:02 20° NNE 05:33:51 10° ENE visible
01 Dec 6.8 02:43:53 14° NNE 02:43:53 14° NNE 02:45:42 10° NNE visible
01 Dec 6.5 04:40:30 14° NNW 04:44:01 17° NNE 04:49:58 10° NE visible
01 Dec 6.3 06:39:21 10° NNW 06:47:35 36° NE 06:57:31 10° ESE visible
02 Dec 7.1 02:03:11 11° NNE 02:03:11 11° NNE 02:03:32 10° NNE visible
02 Dec 6.5 03:59:48 16° N 04:00:58 16° N 04:06:22 10° NE visible
02 Dec 6.5 05:57:26 10° NNW 06:04:59 29° NNE 06:13:56 10° E visible
03 Dec 6.6 03:19:05 16° N 03:19:05 16° N 03:23:11 10° NNE visible
03 Dec 6.6 05:15:42 11° NNW 05:22:12 24° NNE 05:30:08 10° ENE visible
